STARLINK-2245, 48589

Orbit data source: Space-Track

STARLINK-2245, 48589 is a payload satellite owned by SpaceX/Seattle (US) in LEO that was launched on Sat, 15 May 2021 UTC via an FALCON 9 launch vehicle from the Air Force Eastern Test Range (AFETR). Payload-class satellites include a variety of spacecraft equipped with specific instruments for various scientific and technological missions. These include communications satellites like Starlink; space stations such as the ISS; scientific satellites like the Hubble; Earth observation satellites from companies like Planet Labs, Umbra, and HawkEye 360; GPS; miniature CubeSats for education and research; and military/defense satellites.

Loading next visibility...
Identifier
48589, 2021-041AN
Orbit
LEO
Last TLE update
5 hours ago
Origin
Manufacturer
SpaceX/Seattle
Mission
Operational Commercial Communications
Bus & Motor
STARLINK, Unknown motor
Mass
260 kg wet, ~248 kg dry
Launch date (UTC)
2021-05-15 (4 years ago)
Launch vehicle
FALCON 9
Launch site
Air Force Eastern Test Range (AFETR)
Object type
Payload
Rocket body
Debris
Shape & HBR
Box + 1 Pan, 8.86 m
Radar Cross Section
13.562 m², Large (>1 m²)

Expand to show TLE details & history

TLE from 5 hours ago
0 STARLINK-2245
1 48589U 21041AN  25130.18213658 -.00000174  00000-0  72137-5 0  9995
2 48589  53.0558  54.1122 0001617  96.8035 263.3138 15.06391588219906
Epoch: 2025-05-10T04:22Z
Definitive object data (Epoch: 2025-05-10T04:22:16.6Z)
Latitude
-0.00002°
Longitude
120.31541°
Altitude
548.247 km
Speed
7.589 km/s
True Right ascension
03h 36m 26s
True Declination
0° 00' 00"
Sunlit
Object was in daylight at TLE epoch
Visualization TLE readout
Latitude
50.63369°
Longitude
-126.39424°
Altitude
552.092 km
Speed
7.593 km/s
Apparent Right ascension
08h 19m 38s
Apparent Declination
10° 02' 19"
Sunlit
Object is in daylight
Visualization observer readout
Local Sidereal Time
17:50:04
Azimuth
316.751° NNW
Elevation
-29.222°
Doppler factor
1
Orbital elements
Apogee altitude
548.628 km
Perigee altitude
546.388 km
Semi-major axis
6,925.645 km
Eccentricity
0.0001617
Inclination
53.0558°
RAAN
54.1122°
Arg. of periapsis
96.8035°
True anomaly
263.2954°
Mean anomaly
263.3138°
Eccentric anomaly
263.3046°
Mean motion
3.76576 °/min
BSTAR
0.0000072137
Orbital period
95.6 mins
Loading maneuver chart data...
Loading SW <> Apogee altitude chart data...
Loading historical data...
Loading historical data...
Loading historical data...
Loading historical data...
Loading historical data...
Loading historical data...
Loading historical data...

STARLINK-2245 Visibility forecast

Observer location: undefined°, undefined°

Span
Click to sort rows by Start time (UTC) header in descending order
Start Az.
Max El. time (UTC)
Max El. Az.
Max El.
End time (UTC)
End Az.
5 mins2025-05-10 20:26:46.122Z168.518° S2025-05-10 20:28:46.122Z135.623° SSE18.503°2025-05-10 20:31:46.122Z84.48° E
6 mins2025-05-10 22:05:46.122Z250.379° W2025-05-10 22:08:46.122Z352.257° N38.901°2025-05-10 22:11:46.122Z41.725° NE
5 mins2025-05-11 03:07:46.122Z338.737° N2025-05-11 03:09:46.122Z17.489° NNE24.095°2025-05-11 03:12:46.122Z77.85° E
6 mins2025-05-11 04:47:46.122Z292.699° NW2025-05-11 04:49:46.122Z229.515° WSW39.784°2025-05-11 04:53:46.122Z146.225° SSE
|